Location: General Nathan Twining Observatory
(34.5931°N, 106.8201°W)
Time: 18:36:36
(UTC-06:00)

ADEOS II - Visible Passes

Search period start: 24 October 2014 00:00
Search period end: 02 November 2014 23:00
Orbit: 802 x 802 km, 98.3° (Epoch: 24 October)

Date Brightness Start Highest point End Pass type
(mag) Time Alt. Az. Time Alt. Az. Time Alt. Az.
25 Oct 3.3 06:40:04 10° NNE 06:45:09 48° E 06:50:12 10° S visible
25 Oct 5.2 19:37:58 10° SW 19:41:10 16° W 19:44:22 10° NW visible
26 Oct 4.5 06:14:39 10° NE 06:19:01 26° E 06:23:22 10° SSE visible
26 Oct 4.3 19:10:26 10° SSW 19:14:57 29° W 19:19:31 10° NW visible
27 Oct 5.4 05:50:02 10° ENE 05:52:48 14° E 05:55:33 10° SE visible
27 Oct 3.1 18:43:44 10° S 18:48:51 54° W 18:54:00 10° NNW visible
29 Oct 3.5 06:35:50 10° NNE 06:40:51 44° E 06:45:49 10° S visible
29 Oct 5.1 19:33:22 10° SW 19:36:50 18° W 19:40:19 10° NW visible
30 Oct 4.6 06:10:29 10° NE 06:14:42 24° E 06:18:54 10° SSE visible
30 Oct 4.1 19:05:59 10° SSW 19:10:38 32° W 19:15:19 10° NW visible
31 Oct 5.4 05:46:06 10° ENE 05:48:28 13° E 05:50:49 10° ESE visible
31 Oct 2.9 18:39:23 10° S 18:44:32 59° W 18:49:44 10° NNW visible
01 Nov 2.4 06:57:19 10° NNE 07:02:36 74° ESE 07:07:50 10° S visible
02 Nov 3.6 05:31:35 10° NNE 05:36:31 40° E 05:41:26 10° SSE visible
02 Nov 5.0 18:28:48 10° SW 18:32:29 19° W 18:36:12 10° NW visible
